Year,Month,Day,Hour,Minute,Value (Times are PST for barometer in hPa)
2006,11,15,00,00,1006.76
2006,11,15,00,01,1006.74
2006,11,15,00,02,1006.74
2006,11,15,00,03,1006.74
2006,11,15,00,04,1006.74
2006,11,15,00,05,1006.74
2006,11,15,00,06,1006.74
2006,11,15,00,07,1006.74
2006,11,15,00,08,1006.74
2006,11,15,00,09,1006.74
2006,11,15,00,10,1006.74
2006,11,15,00,11,1006.74
2006,11,15,00,12,1006.74
2006,11,15,00,13,1006.74
2006,11,15,00,14,1006.74
2006,11,15,00,15,1006.33
2006,11,15,00,16,1006.33
2006,11,15,00,17,1006.33
2006,11,15,00,18,1006.33
2006,11,15,00,19,1006.33
2006,11,15,00,20,1006.33
2006,11,15,00,21,1006.33
2006,11,15,00,22,1006.33
2006,11,15,00,23,1006.33
2006,11,15,00,24,1006.33
2006,11,15,00,25,1006.33
2006,11,15,00,26,1006.33
2006,11,15,00,27,1006.33
2006,11,15,00,28,1006.33
2006,11,15,00,29,1006.33
2006,11,15,00,30,1005.66
2006,11,15,00,31,1005.66
2006,11,15,00,32,1005.66
2006,11,15,00,33,1005.66
2006,11,15,00,34,1005.66
2006,11,15,00,35,1005.66
2006,11,15,00,36,1005.66
2006,11,15,00,37,1005.66
2006,11,15,00,38,1005.66
2006,11,15,00,39,1005.66
2006,11,15,00,40,1005.66
2006,11,15,00,41,1005.66
2006,11,15,00,42,1005.66
2006,11,15,00,43,1005.66
2006,11,15,00,44,1005.67
2006,11,15,00,45,1005.83
2006,11,15,00,46,1005.83
2006,11,15,00,47,1005.83
2006,11,15,00,48,1005.83
2006,11,15,00,49,1005.83
2006,11,15,00,50,1005.83
2006,11,15,00,51,1005.83
2006,11,15,00,52,1005.83
2006,11,15,00,53,1005.83
2006,11,15,00,54,1005.83
2006,11,15,00,55,1005.83
2006,11,15,00,56,1005.83
2006,11,15,00,57,1005.83
2006,11,15,00,58,1005.83
2006,11,15,00,59,1005.83
2006,11,15,01,00,1005.05
2006,11,15,01,01,1005.05
2006,11,15,01,02,1005.05
2006,11,15,01,03,1005.05
2006,11,15,01,04,1005.05
2006,11,15,01,05,1005.05
2006,11,15,01,06,1005.05
2006,11,15,01,07,1005.05
2006,11,15,01,08,1005.05
2006,11,15,01,09,1005.05
2006,11,15,01,10,1005.05
2006,11,15,01,11,1005.05
2006,11,15,01,12,1005.05
2006,11,15,01,13,1005.05
2006,11,15,01,14,1005.05
2006,11,15,01,15,1004.57
2006,11,15,01,16,1004.57
2006,11,15,01,17,1004.57
2006,11,15,01,18,1004.57
2006,11,15,01,19,1004.57
2006,11,15,01,20,1004.57
2006,11,15,01,21,1004.57
2006,11,15,01,22,1004.57
2006,11,15,01,23,1004.57
2006,11,15,01,24,1004.57
2006,11,15,01,25,1004.57
2006,11,15,01,26,1004.57
2006,11,15,01,27,1004.57
2006,11,15,01,28,1004.57
2006,11,15,01,29,1004.57
2006,11,15,01,30,1004.00
2006,11,15,01,31,1004.00
2006,11,15,01,32,1004.00
2006,11,15,01,33,1004.00
2006,11,15,01,34,1004.00
2006,11,15,01,35,1004.00
2006,11,15,01,36,1004.00
2006,11,15,01,37,1004.00
2006,11,15,01,38,1004.00
2006,11,15,01,39,1004.00
2006,11,15,01,40,1004.00
2006,11,15,01,41,1004.00
2006,11,15,01,42,1004.00
2006,11,15,01,43,1004.00
2006,11,15,01,44,1004.00
2006,11,15,01,45,1003.52
2006,11,15,01,46,1003.52
2006,11,15,01,47,1003.52
2006,11,15,01,48,1003.52
2006,11,15,01,49,1003.52
2006,11,15,01,50,1003.52
2006,11,15,01,51,1003.52
2006,11,15,01,52,1003.52
2006,11,15,01,53,1003.52
2006,11,15,01,54,1003.52
2006,11,15,01,55,1003.52
2006,11,15,01,56,1003.52
2006,11,15,01,57,1003.52
2006,11,15,01,58,1003.52
2006,11,15,01,59,1003.52
2006,11,15,02,00,1003.18
2006,11,15,02,01,1003.18
2006,11,15,02,02,1003.18
2006,11,15,02,03,1003.18
2006,11,15,02,04,1003.18
2006,11,15,02,05,1003.18
2006,11,15,02,06,1003.18
2006,11,15,02,07,1003.18
2006,11,15,02,08,1003.18
2006,11,15,02,09,1003.18
2006,11,15,02,10,1003.18
2006,11,15,02,11,1003.18
2006,11,15,02,12,1003.18
2006,11,15,02,13,1003.18
2006,11,15,02,14,1003.18
2006,11,15,02,15,1002.88
2006,11,15,02,16,1002.88
2006,11,15,02,17,1002.88
2006,11,15,02,18,1002.88
2006,11,15,02,19,1002.88
2006,11,15,02,20,1002.88
2006,11,15,02,21,1002.88
2006,11,15,02,22,1002.88
2006,11,15,02,23,1002.88
2006,11,15,02,24,1002.88
2006,11,15,02,25,1002.88
2006,11,15,02,26,1002.88
2006,11,15,02,27,1002.88
2006,11,15,02,28,1002.88
2006,11,15,02,29,1002.88
2006,11,15,02,30,1002.47
2006,11,15,02,31,1002.47
2006,11,15,02,32,1002.47
2006,11,15,02,33,1002.47
2006,11,15,02,34,1002.47
2006,11,15,02,35,1002.47
2006,11,15,02,36,1002.47
2006,11,15,02,37,1002.47
2006,11,15,02,38,1002.47
2006,11,15,02,39,1002.47
2006,11,15,02,40,1002.47
2006,11,15,02,41,1002.47
2006,11,15,02,42,1002.47
2006,11,15,02,43,1002.47
2006,11,15,02,44,1002.47
2006,11,15,02,45,1002.00
2006,11,15,02,46,1002.00
2006,11,15,02,47,1002.00
2006,11,15,02,48,1002.00
2006,11,15,02,49,1002.00
2006,11,15,02,50,1002.00
2006,11,15,02,51,1002.00
2006,11,15,02,52,1002.00
2006,11,15,02,53,1002.00
2006,11,15,02,54,1002.00
2006,11,15,02,55,1002.00
2006,11,15,02,56,1002.00
2006,11,15,02,57,1002.00
2006,11,15,02,58,1002.00
2006,11,15,02,59,1001.97
2006,11,15,03,00,1001.46
2006,11,15,03,01,1001.46
2006,11,15,03,02,1001.46
2006,11,15,03,03,1001.46
2006,11,15,03,04,1001.46
2006,11,15,03,05,1001.46
2006,11,15,03,06,1001.46
2006,11,15,03,07,1001.46
2006,11,15,03,08,1001.46
2006,11,15,03,09,1001.46
2006,11,15,03,10,1001.46
2006,11,15,03,11,1001.46
2006,11,15,03,12,1001.46
2006,11,15,03,13,1001.46
2006,11,15,03,14,1001.46
2006,11,15,03,15,1000.98
2006,11,15,03,16,1000.98
2006,11,15,03,17,1000.98
2006,11,15,03,18,1000.98
2006,11,15,03,19,1000.98
2006,11,15,03,20,1000.98
2006,11,15,03,21,1000.98
2006,11,15,03,22,1000.98
2006,11,15,03,23,1000.98
2006,11,15,03,24,1000.98
2006,11,15,03,25,1000.98
2006,11,15,03,26,1000.98
2006,11,15,03,27,1000.98
2006,11,15,03,28,1000.98
2006,11,15,03,29,1000.98
2006,11,15,03,30,1000.24
2006,11,15,03,31,1000.24
2006,11,15,03,32,1000.24
2006,11,15,03,33,1000.24
2006,11,15,03,34,1000.24
2006,11,15,03,35,1000.24
2006,11,15,03,36,1000.24
2006,11,15,03,37,1000.24
2006,11,15,03,38,1000.24
2006,11,15,03,39,1000.24
2006,11,15,03,40,1000.24
2006,11,15,03,41,1000.24
2006,11,15,03,42,1000.24
2006,11,15,03,43,1000.24
2006,11,15,03,44,1000.24
2006,11,15,03,45,999.43
2006,11,15,03,46,999.43
2006,11,15,03,47,999.43
2006,11,15,03,48,999.43
2006,11,15,03,49,999.43
2006,11,15,03,50,999.43
2006,11,15,03,51,999.43
2006,11,15,03,52,999.43
2006,11,15,03,53,999.43
2006,11,15,03,54,999.43
2006,11,15,03,55,999.43
2006,11,15,03,56,999.43
2006,11,15,03,57,999.43
2006,11,15,03,58,999.43
2006,11,15,03,59,999.41
2006,11,15,04,00,999.02
2006,11,15,04,01,999.02
2006,11,15,04,02,999.02
2006,11,15,04,03,999.02
2006,11,15,04,04,999.02
2006,11,15,04,05,999.02
2006,11,15,04,06,999.02
2006,11,15,04,07,999.02
2006,11,15,04,08,999.02
2006,11,15,04,09,999.02
2006,11,15,04,10,999.02
2006,11,15,04,11,999.02
2006,11,15,04,12,999.02
2006,11,15,04,13,999.02
2006,11,15,04,14,999.02
2006,11,15,04,15,998.82
2006,11,15,04,16,998.82
2006,11,15,04,17,998.82
2006,11,15,04,18,998.82
2006,11,15,04,19,998.82
2006,11,15,04,20,998.82
2006,11,15,04,21,998.82
2006,11,15,04,22,998.82
2006,11,15,04,23,998.82
2006,11,15,04,24,998.82
2006,11,15,04,25,998.82
2006,11,15,04,26,998.82
2006,11,15,04,27,998.82
2006,11,15,04,28,998.82
2006,11,15,04,29,998.82
2006,11,15,04,30,997.26
2006,11,15,04,31,997.26
2006,11,15,04,32,997.26
2006,11,15,04,33,997.26
2006,11,15,04,34,997.26
2006,11,15,04,35,997.26
2006,11,15,04,36,997.26
2006,11,15,04,37,997.26
2006,11,15,04,38,997.26
2006,11,15,04,39,997.26
2006,11,15,04,40,997.26
2006,11,15,04,41,997.26
2006,11,15,04,42,997.26
2006,11,15,04,43,997.26
2006,11,15,04,44,997.26
2006,11,15,04,45,996.78
2006,11,15,04,46,996.78
2006,11,15,04,47,996.78
2006,11,15,04,48,996.78
2006,11,15,04,49,996.78
2006,11,15,04,50,996.78
2006,11,15,04,51,996.78
2006,11,15,04,52,996.78
2006,11,15,04,53,996.78
2006,11,15,04,54,996.78
2006,11,15,04,55,996.78
2006,11,15,04,56,996.78
2006,11,15,04,57,996.78
2006,11,15,04,58,996.78
2006,11,15,04,59,996.78
2006,11,15,05,00,996.28
2006,11,15,05,01,996.28
2006,11,15,05,02,996.28
2006,11,15,05,03,996.28
2006,11,15,05,04,996.28
2006,11,15,05,05,996.28
2006,11,15,05,06,996.28
2006,11,15,05,07,996.28
2006,11,15,05,08,996.28
2006,11,15,05,09,996.28
2006,11,15,05,10,996.28
2006,11,15,05,11,996.28
2006,11,15,05,12,996.28
2006,11,15,05,13,996.28
2006,11,15,05,14,996.28
2006,11,15,05,15,996.07
2006,11,15,05,16,996.07
2006,11,15,05,17,996.07
2006,11,15,05,18,996.07
2006,11,15,05,19,996.07
2006,11,15,05,20,996.07
2006,11,15,05,21,996.07
2006,11,15,05,22,996.07
2006,11,15,05,23,996.07
2006,11,15,05,24,996.07
2006,11,15,05,25,996.07
2006,11,15,05,26,996.07
2006,11,15,05,27,996.07
2006,11,15,05,28,996.07
2006,11,15,05,29,996.07
2006,11,15,05,30,994.92
2006,11,15,05,31,994.92
2006,11,15,05,32,994.92
2006,11,15,05,33,994.92
2006,11,15,05,34,994.92
2006,11,15,05,35,994.92
2006,11,15,05,36,994.92
2006,11,15,05,37,994.92
2006,11,15,05,38,994.92
2006,11,15,05,39,994.92
2006,11,15,05,40,994.92
2006,11,15,05,41,994.92
2006,11,15,05,42,994.92
2006,11,15,05,43,994.92
2006,11,15,05,44,994.92
2006,11,15,05,45,994.68
2006,11,15,05,46,994.68
2006,11,15,05,47,994.68
2006,11,15,05,48,994.68
2006,11,15,05,49,994.68
2006,11,15,05,50,994.68
2006,11,15,05,51,994.68
2006,11,15,05,52,994.68
2006,11,15,05,53,994.68
2006,11,15,05,54,994.68
2006,11,15,05,55,994.68
2006,11,15,05,56,994.68
2006,11,15,05,57,994.68
2006,11,15,05,58,994.68
2006,11,15,05,59,994.68
2006,11,15,06,00,993.77
2006,11,15,06,01,993.77
2006,11,15,06,02,993.77
2006,11,15,06,03,993.77
2006,11,15,06,04,993.77
2006,11,15,06,05,993.77
2006,11,15,06,06,993.77
2006,11,15,06,07,993.77
2006,11,15,06,08,993.77
2006,11,15,06,09,993.77
2006,11,15,06,10,993.77
2006,11,15,06,11,993.77
2006,11,15,06,12,993.77
2006,11,15,06,13,993.77
2006,11,15,06,14,993.77
2006,11,15,06,15,993.26
2006,11,15,06,16,993.26
2006,11,15,06,17,993.26
2006,11,15,06,18,993.26
2006,11,15,06,19,993.26
2006,11,15,06,20,993.26
2006,11,15,06,21,993.26
2006,11,15,06,22,993.26
2006,11,15,06,23,993.26
2006,11,15,06,24,993.26
2006,11,15,06,25,993.26
2006,11,15,06,26,993.26
2006,11,15,06,27,993.26
2006,11,15,06,28,993.26
2006,11,15,06,29,993.26
2006,11,15,06,30,992.92
2006,11,15,06,31,992.92
2006,11,15,06,32,992.92
2006,11,15,06,33,992.92
2006,11,15,06,34,992.92
2006,11,15,06,35,992.92
2006,11,15,06,36,992.92
2006,11,15,06,37,992.92
2006,11,15,06,38,992.92
2006,11,15,06,39,992.92
2006,11,15,06,40,992.92
2006,11,15,06,41,992.92
2006,11,15,06,42,992.92
2006,11,15,06,43,992.92
2006,11,15,06,44,992.92
2006,11,15,06,45,992.21
2006,11,15,06,46,992.21
2006,11,15,06,47,992.21
2006,11,15,06,48,992.21
2006,11,15,06,49,992.21
2006,11,15,06,50,992.21
2006,11,15,06,51,992.21
2006,11,15,06,52,992.21
2006,11,15,06,53,992.21
2006,11,15,06,54,992.21
2006,11,15,06,55,992.21
2006,11,15,06,56,992.21
2006,11,15,06,57,992.21
2006,11,15,06,58,992.21
2006,11,15,06,59,992.21
2006,11,15,07,00,992.01
2006,11,15,07,01,992.01
2006,11,15,07,02,992.01
2006,11,15,07,03,992.01
2006,11,15,07,04,992.01
2006,11,15,07,05,992.01
2006,11,15,07,06,992.01
2006,11,15,07,07,992.01
2006,11,15,07,08,992.01
2006,11,15,07,09,992.01
2006,11,15,07,10,992.01
2006,11,15,07,11,992.01
2006,11,15,07,12,992.01
2006,11,15,07,13,992.01
2006,11,15,07,14,992.01
2006,11,15,07,15,991.64
2006,11,15,07,16,991.64
2006,11,15,07,17,991.64
2006,11,15,07,18,991.64
2006,11,15,07,19,991.64
2006,11,15,07,20,991.64
2006,11,15,07,21,991.64
2006,11,15,07,22,991.64
2006,11,15,07,23,991.64
2006,11,15,07,24,991.64
2006,11,15,07,25,991.64
2006,11,15,07,26,991.64
2006,11,15,07,27,991.64
2006,11,15,07,28,991.64
2006,11,15,07,29,991.64
2006,11,15,07,30,991.06
2006,11,15,07,31,991.06
2006,11,15,07,32,991.06
2006,11,15,07,33,991.06
2006,11,15,07,34,991.06
2006,11,15,07,35,991.06
2006,11,15,07,36,991.06
2006,11,15,07,37,991.06
2006,11,15,07,38,991.06
2006,11,15,07,39,991.06
2006,11,15,07,40,991.06
2006,11,15,07,41,991.06
2006,11,15,07,42,991.06
2006,11,15,07,43,991.06
2006,11,15,07,44,991.06
2006,11,15,07,45,990.41
2006,11,15,07,46,990.38
2006,11,15,07,47,990.38
2006,11,15,07,48,990.38
2006,11,15,07,49,990.38
2006,11,15,07,50,990.38
2006,11,15,07,51,990.38
2006,11,15,07,52,990.38
2006,11,15,07,53,990.38
2006,11,15,07,54,990.38
2006,11,15,07,55,990.38
2006,11,15,07,56,990.38
2006,11,15,07,57,990.38
2006,11,15,07,58,990.38
2006,11,15,07,59,990.38
2006,11,15,08,00,989.60
2006,11,15,08,01,989.60
2006,11,15,08,02,989.60
2006,11,15,08,03,989.60
2006,11,15,08,04,989.60
2006,11,15,08,05,989.60
2006,11,15,08,06,989.60
2006,11,15,08,07,989.60
2006,11,15,08,08,989.60
2006,11,15,08,09,989.60
2006,11,15,08,10,989.60
2006,11,15,08,11,989.60
2006,11,15,08,12,989.60
2006,11,15,08,13,989.60
2006,11,15,08,14,989.60
2006,11,15,08,15,988.93
2006,11,15,08,16,988.93
2006,11,15,08,17,988.93
2006,11,15,08,18,988.93
2006,11,15,08,19,988.93
2006,11,15,08,20,988.93
2006,11,15,08,21,988.93
2006,11,15,08,22,988.93
2006,11,15,08,23,988.93
2006,11,15,08,24,988.93
2006,11,15,08,25,988.93
2006,11,15,08,26,988.93
2006,11,15,08,27,988.93
2006,11,15,08,28,988.93
2006,11,15,08,29,988.93
2006,11,15,08,30,988.52
2006,11,15,08,31,988.52
2006,11,15,08,32,988.52
2006,11,15,08,33,988.52
2006,11,15,08,34,988.52
2006,11,15,08,35,988.52
2006,11,15,08,36,988.52
2006,11,15,08,37,988.52
2006,11,15,08,38,988.52
2006,11,15,08,39,988.52
2006,11,15,08,40,988.52
2006,11,15,08,41,988.52
2006,11,15,08,42,988.52
2006,11,15,08,43,988.52
2006,11,15,08,44,988.52
2006,11,15,08,45,987.47
2006,11,15,08,46,987.47
2006,11,15,08,47,987.47
2006,11,15,08,48,987.47
2006,11,15,08,49,987.47
2006,11,15,08,50,987.47
2006,11,15,08,51,987.47
2006,11,15,08,52,987.47
2006,11,15,08,53,987.47
2006,11,15,08,54,987.47
2006,11,15,08,55,987.47
2006,11,15,08,56,987.47
2006,11,15,08,57,987.47
2006,11,15,08,58,987.47
2006,11,15,08,59,987.47
2006,11,15,09,00,986.49
2006,11,15,09,01,986.49
2006,11,15,09,02,986.49
2006,11,15,09,03,986.49
2006,11,15,09,04,986.49
2006,11,15,09,05,986.49
2006,11,15,09,06,986.49
2006,11,15,09,07,986.49
2006,11,15,09,08,986.49
2006,11,15,09,09,986.49
2006,11,15,09,10,986.49
2006,11,15,09,11,986.49
2006,11,15,09,12,986.49
2006,11,15,09,13,986.49
2006,11,15,09,14,986.49
2006,11,15,09,15,986.40
2006,11,15,09,16,986.39
2006,11,15,09,17,986.39
2006,11,15,09,18,986.39
2006,11,15,09,19,986.39
2006,11,15,09,20,986.39
2006,11,15,09,21,986.39
2006,11,15,09,22,986.39
2006,11,15,09,23,986.39
2006,11,15,09,24,986.39
2006,11,15,09,25,986.39
2006,11,15,09,26,986.39
2006,11,15,09,27,986.39
2006,11,15,09,28,986.39
2006,11,15,09,29,986.39
2006,11,15,09,30,985.41
2006,11,15,09,31,985.41
2006,11,15,09,32,985.41
2006,11,15,09,33,985.41
2006,11,15,09,34,985.41
2006,11,15,09,35,985.41
2006,11,15,09,36,985.41
2006,11,15,09,37,985.41
2006,11,15,09,38,985.41
2006,11,15,09,39,985.41
2006,11,15,09,40,985.41
2006,11,15,09,41,985.41
2006,11,15,09,42,985.41
2006,11,15,09,43,985.41
2006,11,15,09,44,985.41
2006,11,15,09,45,984.99
2006,11,15,09,46,984.97
2006,11,15,09,47,984.97
2006,11,15,09,48,984.97
2006,11,15,09,49,984.97
2006,11,15,09,50,984.97
2006,11,15,09,51,984.97
2006,11,15,09,52,984.97
2006,11,15,09,53,984.97
2006,11,15,09,54,984.97
2006,11,15,09,55,984.97
2006,11,15,09,56,984.97
2006,11,15,09,57,984.97
2006,11,15,09,58,984.97
2006,11,15,09,59,984.97
2006,11,15,10,00,985.00
2006,11,15,10,01,985.00
2006,11,15,10,02,985.00
2006,11,15,10,03,985.00
2006,11,15,10,04,985.00
2006,11,15,10,05,985.00
2006,11,15,10,06,985.00
2006,11,15,10,07,985.00
2006,11,15,10,08,985.00
2006,11,15,10,09,985.00
2006,11,15,10,10,985.00
2006,11,15,10,11,985.00
2006,11,15,10,12,985.00
2006,11,15,10,13,985.00
2006,11,15,10,14,985.00
2006,11,15,10,15,984.39
2006,11,15,10,16,984.39
2006,11,15,10,17,984.39
2006,11,15,10,18,984.39
2006,11,15,10,19,984.39
2006,11,15,10,20,984.39
2006,11,15,10,21,984.39
2006,11,15,10,22,984.39
2006,11,15,10,23,984.39
2006,11,15,10,24,984.39
2006,11,15,10,25,984.39
2006,11,15,10,26,984.39
2006,11,15,10,27,984.39
2006,11,15,10,28,984.39
2006,11,15,10,29,984.39
2006,11,15,10,30,983.85
2006,11,15,10,31,983.85
2006,11,15,10,32,983.85
2006,11,15,10,33,983.85
2006,11,15,10,34,983.85
2006,11,15,10,35,983.85
2006,11,15,10,36,983.85
2006,11,15,10,37,983.85
2006,11,15,10,38,983.85
2006,11,15,10,39,983.85
2006,11,15,10,40,983.85
2006,11,15,10,41,983.85
2006,11,15,10,42,983.85
2006,11,15,10,43,983.85
2006,11,15,10,44,983.85
2006,11,15,10,45,983.78
2006,11,15,10,46,983.78
2006,11,15,10,47,983.78
2006,11,15,10,48,983.78
2006,11,15,10,49,983.78
2006,11,15,10,50,983.78
2006,11,15,10,51,983.78
2006,11,15,10,52,983.78
2006,11,15,10,53,983.78
2006,11,15,10,54,983.78
2006,11,15,10,55,983.78
2006,11,15,10,56,983.78
2006,11,15,10,57,983.78
2006,11,15,10,58,983.78
2006,11,15,10,59,983.78
2006,11,15,11,00,983.81
2006,11,15,11,01,983.81
2006,11,15,11,02,983.81
2006,11,15,11,03,983.81
2006,11,15,11,04,983.81
2006,11,15,11,05,983.81
2006,11,15,11,06,983.81
2006,11,15,11,07,983.81
2006,11,15,11,08,983.81
2006,11,15,11,09,983.81
2006,11,15,11,10,983.81
2006,11,15,11,11,983.81
2006,11,15,11,12,983.81
2006,11,15,11,13,983.81
2006,11,15,11,14,983.81
2006,11,15,11,15,983.33
2006,11,15,11,16,983.31
2006,11,15,11,17,983.31
2006,11,15,11,18,983.31
2006,11,15,11,19,983.31
2006,11,15,11,20,983.31
2006,11,15,11,21,983.31
2006,11,15,11,22,983.31
2006,11,15,11,23,983.31
2006,11,15,11,24,983.31
2006,11,15,11,25,983.31
2006,11,15,11,26,983.31
2006,11,15,11,27,983.31
2006,11,15,11,28,983.31
2006,11,15,11,29,983.31
2006,11,15,11,30,982.29
2006,11,15,11,31,982.29
2006,11,15,11,32,982.29
2006,11,15,11,33,982.29
2006,11,15,11,34,982.29
2006,11,15,11,35,982.29
2006,11,15,11,36,982.29
2006,11,15,11,37,982.29
2006,11,15,11,38,982.29
2006,11,15,11,39,982.29
2006,11,15,11,40,982.29
2006,11,15,11,41,982.29
2006,11,15,11,42,982.29
2006,11,15,11,43,982.29
2006,11,15,11,44,982.29
2006,11,15,11,45,981.78
2006,11,15,11,46,981.78
2006,11,15,11,47,981.78
2006,11,15,11,48,981.78
2006,11,15,11,49,981.78
2006,11,15,11,50,981.78
2006,11,15,11,51,981.78
2006,11,15,11,52,981.78
2006,11,15,11,53,981.78
2006,11,15,11,54,981.78
2006,11,15,11,55,981.78
2006,11,15,11,56,981.78
2006,11,15,11,57,981.78
2006,11,15,11,58,981.78
2006,11,15,11,59,981.78
2006,11,15,12,00,981.13
2006,11,15,12,01,981.10
2006,11,15,12,02,981.10
2006,11,15,12,03,981.10
2006,11,15,12,04,981.10
2006,11,15,12,05,981.10
2006,11,15,12,06,981.10
2006,11,15,12,07,981.10
2006,11,15,12,08,981.10
2006,11,15,12,09,981.10
2006,11,15,12,10,981.10
2006,11,15,12,11,981.10
2006,11,15,12,12,981.10
2006,11,15,12,13,981.10
2006,11,15,12,14,981.10
2006,11,15,12,15,981.23
2006,11,15,12,16,981.24
2006,11,15,12,17,981.24
2006,11,15,12,18,981.24
2006,11,15,12,19,981.24
2006,11,15,12,20,981.24
2006,11,15,12,21,981.24
2006,11,15,12,22,981.24
2006,11,15,12,23,981.24
2006,11,15,12,24,981.24
2006,11,15,12,25,981.24
2006,11,15,12,26,981.24
2006,11,15,12,27,981.24
2006,11,15,12,28,981.24
2006,11,15,12,29,981.24
2006,11,15,12,30,980.75
2006,11,15,12,31,980.73
2006,11,15,12,32,980.73
2006,11,15,12,33,980.73
2006,11,15,12,34,980.73
2006,11,15,12,35,980.73
2006,11,15,12,36,980.73
2006,11,15,12,37,980.73
2006,11,15,12,38,980.73
2006,11,15,12,39,980.73
2006,11,15,12,40,980.73
2006,11,15,12,41,980.73
2006,11,15,12,42,980.73
2006,11,15,12,43,980.73
2006,11,15,12,44,980.73
2006,11,15,12,45,979.80
2006,11,15,12,46,979.75
2006,11,15,12,47,979.75
2006,11,15,12,48,979.75
2006,11,15,12,49,979.75
2006,11,15,12,50,979.75
2006,11,15,12,51,979.75
2006,11,15,12,52,979.75
2006,11,15,12,53,979.75
2006,11,15,12,54,979.75
2006,11,15,12,55,979.75
2006,11,15,12,56,979.75
2006,11,15,12,57,979.75
2006,11,15,12,58,979.75
2006,11,15,12,59,979.75
2006,11,15,13,00,980.01
2006,11,15,13,01,980.02
2006,11,15,13,02,980.02
2006,11,15,13,03,980.02
2006,11,15,13,04,980.02
2006,11,15,13,05,980.02
2006,11,15,13,06,980.02
2006,11,15,13,07,980.02
2006,11,15,13,08,980.02
2006,11,15,13,09,980.02
2006,11,15,13,10,980.02
2006,11,15,13,11,980.02
2006,11,15,13,12,980.02
2006,11,15,13,13,980.02
2006,11,15,13,14,980.02
2006,11,15,13,15,979.55
2006,11,15,13,16,979.55
2006,11,15,13,17,979.55
2006,11,15,13,18,979.55
2006,11,15,13,19,979.55
2006,11,15,13,20,979.55
2006,11,15,13,21,979.55
2006,11,15,13,22,979.55
2006,11,15,13,23,979.55
2006,11,15,13,24,979.55
2006,11,15,13,25,979.55
2006,11,15,13,26,979.55
2006,11,15,13,27,979.55
2006,11,15,13,28,979.55
2006,11,15,13,29,979.55
2006,11,15,13,30,979.29
2006,11,15,13,31,979.28
2006,11,15,13,32,979.28
2006,11,15,13,33,979.28
2006,11,15,13,34,979.28
2006,11,15,13,35,979.28
2006,11,15,13,36,979.28
2006,11,15,13,37,979.28
2006,11,15,13,38,979.28
2006,11,15,13,39,979.28
2006,11,15,13,40,979.28
2006,11,15,13,41,979.28
2006,11,15,13,42,979.28
2006,11,15,13,43,979.28
2006,11,15,13,44,979.28
2006,11,15,13,45,979.86
2006,11,15,13,46,979.89
2006,11,15,13,47,979.89
2006,11,15,13,48,979.89
2006,11,15,13,49,979.89
2006,11,15,13,50,979.89
2006,11,15,13,51,979.89
2006,11,15,13,52,979.89
2006,11,15,13,53,979.89
2006,11,15,13,54,979.89
2006,11,15,13,55,979.89
2006,11,15,13,56,979.89
2006,11,15,13,57,979.89
2006,11,15,13,58,979.89
2006,11,15,13,59,979.89
2006,11,15,14,00,979.62
2006,11,15,14,01,979.61
2006,11,15,14,02,979.61
2006,11,15,14,03,979.61
2006,11,15,14,04,979.61
2006,11,15,14,05,979.61
2006,11,15,14,06,979.61
2006,11,15,14,07,979.61
2006,11,15,14,08,979.61
2006,11,15,14,09,979.61
2006,11,15,14,10,979.61
2006,11,15,14,11,979.61
2006,11,15,14,12,979.61
2006,11,15,14,13,979.61
2006,11,15,14,14,979.61
2006,11,15,14,15,979.04
2006,11,15,14,16,979.04
2006,11,15,14,17,979.04
2006,11,15,14,18,979.04
2006,11,15,14,19,979.04
2006,11,15,14,20,979.04
2006,11,15,14,21,979.04
2006,11,15,14,22,979.04
2006,11,15,14,23,979.04
2006,11,15,14,24,979.04
2006,11,15,14,25,979.04
2006,11,15,14,26,979.04
2006,11,15,14,27,979.04
2006,11,15,14,28,979.04
2006,11,15,14,29,979.04
2006,11,15,14,30,979.65
2006,11,15,14,31,979.68
2006,11,15,14,32,979.68
2006,11,15,14,33,979.68
2006,11,15,14,34,979.68
2006,11,15,14,35,979.68
2006,11,15,14,36,979.68
2006,11,15,14,37,979.68
2006,11,15,14,38,979.68
2006,11,15,14,39,979.68
2006,11,15,14,40,979.68
2006,11,15,14,41,979.68
2006,11,15,14,42,979.68
2006,11,15,14,43,979.68
2006,11,15,14,44,979.68
2006,11,15,14,45,979.72
2006,11,15,14,46,979.72
2006,11,15,14,47,979.72
2006,11,15,14,48,979.72
2006,11,15,14,49,979.72
2006,11,15,14,50,979.72
2006,11,15,14,51,979.72
2006,11,15,14,52,979.72
2006,11,15,14,53,979.72
2006,11,15,14,54,979.72
2006,11,15,14,55,979.72
2006,11,15,14,56,979.72
2006,11,15,14,57,979.72
2006,11,15,14,58,979.72
2006,11,15,14,59,979.72
2006,11,15,15,00,979.65
2006,11,15,15,01,979.65
2006,11,15,15,02,979.65
2006,11,15,15,03,979.65
2006,11,15,15,04,979.65
2006,11,15,15,05,979.65
2006,11,15,15,06,979.65
2006,11,15,15,07,979.65
2006,11,15,15,08,979.65
2006,11,15,15,09,979.65
2006,11,15,15,10,979.65
2006,11,15,15,11,979.65
2006,11,15,15,12,979.65
2006,11,15,15,13,979.65
2006,11,15,15,14,979.65
2006,11,15,15,15,979.30
2006,11,15,15,16,979.28
2006,11,15,15,17,979.28
2006,11,15,15,18,979.28
2006,11,15,15,19,979.28
2006,11,15,15,20,979.28
2006,11,15,15,21,979.28
2006,11,15,15,22,979.28
2006,11,15,15,23,979.28
2006,11,15,15,24,979.28
2006,11,15,15,25,979.28
2006,11,15,15,26,979.28
2006,11,15,15,27,979.28
2006,11,15,15,28,979.28
2006,11,15,15,29,979.28
2006,11,15,15,30,979.34
2006,11,15,15,31,979.34
2006,11,15,15,32,979.34
2006,11,15,15,33,979.34
2006,11,15,15,34,979.34
2006,11,15,15,35,979.34
2006,11,15,15,36,979.34
2006,11,15,15,37,979.34
2006,11,15,15,38,979.34
2006,11,15,15,39,979.34
2006,11,15,15,40,979.34
2006,11,15,15,41,979.34
2006,11,15,15,42,979.34
2006,11,15,15,43,979.34
2006,11,15,15,44,979.34
2006,11,15,15,45,979.99
2006,11,15,15,46,980.02
2006,11,15,15,47,980.02
2006,11,15,15,48,980.02
2006,11,15,15,49,980.02
2006,11,15,15,50,980.02
2006,11,15,15,51,980.02
2006,11,15,15,52,980.02
2006,11,15,15,53,980.02
2006,11,15,15,54,980.02
2006,11,15,15,55,980.02
2006,11,15,15,56,980.02
2006,11,15,15,57,980.02
2006,11,15,15,58,980.02
2006,11,15,15,59,980.02
2006,11,15,16,00,980.25
2006,11,15,16,01,980.26
2006,11,15,16,02,980.26
2006,11,15,16,03,980.26
2006,11,15,16,04,980.26
2006,11,15,16,05,980.26
2006,11,15,16,06,980.26
2006,11,15,16,07,980.26
2006,11,15,16,08,980.26
2006,11,15,16,09,980.26
2006,11,15,16,10,980.26
2006,11,15,16,11,980.26
2006,11,15,16,12,980.26
2006,11,15,16,13,980.26
2006,11,15,16,14,980.26
2006,11,15,16,15,980.33
2006,11,15,16,16,980.33
2006,11,15,16,17,980.33
2006,11,15,16,18,980.33
2006,11,15,16,19,980.33
2006,11,15,16,20,980.33
2006,11,15,16,21,980.33
2006,11,15,16,22,980.33
2006,11,15,16,23,980.33
2006,11,15,16,24,980.33
2006,11,15,16,25,980.33
2006,11,15,16,26,980.33